ACA91 SAEZ-SBGR

Flight info

Callsign ACA91
Flight time N/A
Altitude 41000
Route DORVO1A DORVO UN857 OGRUN UZ121 BUXUK
Aircraft B788/H-SDE1E2E3FGHIJ2J3J4J5M1RWXY/LB1D1

Departure

Time 2026-05-01 08:06
Airport Ezeiza International Airport - Ministro Pistarini (SAEZ)

Arrival

Time N/A
Airport São Paulo/Guarulhos–Governor André Franco Montoro International Airport (SBGR)
Time Latitude Longitude Altitude Speed Heading
2026-05-01 07:40 -34.81556 -58.53925 81 ft 0 kts 322°
2026-05-01 07:56 -34.81583 -58.53899 81 ft 4 kts 321°
2026-05-01 07:57 -34.81604 -58.53878 81 ft 4 kts 319°
2026-05-01 07:57 -34.81637 -58.53835 81 ft 3 kts 306°
2026-05-01 07:58 -34.81643 -58.53803 81 ft 2 kts 258°
2026-05-01 07:58 -34.81632 -58.53779 81 ft 2 kts 234°
2026-05-01 07:59 -34.81636 -58.53786 86 ft 0 kts 233°
2026-05-01 08:01 -34.81716 -58.53886 85 ft 14 kts 237°
2026-05-01 08:01 -34.81770 -58.53996 90 ft 15 kts 243°
2026-05-01 08:01 -34.81789 -58.54123 85 ft 15 kts 277°
2026-05-01 08:02 -34.81761 -58.54386 81 ft 16 kts 278°
2026-05-01 08:02 -34.81753 -58.54520 81 ft 16 kts 266°
2026-05-01 08:03 -34.81773 -58.54791 81 ft 16 kts 280°
2026-05-01 08:03 -34.81749 -58.54928 81 ft 17 kts 282°
2026-05-01 08:03 -34.81700 -58.55204 84 ft 14 kts 280°
2026-05-01 08:04 -34.81795 -58.55337 87 ft 10 kts 166°
2026-05-01 08:04 -34.81808 -58.55332 83 ft 0 kts 159°
2026-05-01 08:05 -34.81858 -58.55306 86 ft 8 kts 154°
2026-05-01 08:05 -34.81909 -58.55267 86 ft 9 kts 131°
2026-05-01 08:05 -34.81931 -58.55193 84 ft 10 kts 102°
2026-05-01 08:06 -34.82088 -58.54319 91 ft 111 kts 102°
2026-05-01 08:06 -34.82567 -58.51880 797 ft 160 kts 107°
2026-05-01 08:07 -34.83783 -58.49558 2099 ft 161 kts 135°
2026-05-01 08:07 -34.85247 -58.47183 2931 ft 199 kts 126°
2026-05-01 08:08 -34.86087 -58.45737 3363 ft 219 kts 111°
2026-05-01 08:08 -34.87826 -58.42104 4249 ft 277 kts 117°
2026-05-01 08:09 -34.89842 -58.37890 5999 ft 293 kts 116°
2026-05-01 08:09 -34.90762 -58.35662 6876 ft 295 kts 102°
2026-05-01 08:09 -34.91106 -58.33246 7781 ft 295 kts 95°
2026-05-01 08:10 -34.91914 -58.28241 9535 ft 306 kts 96°
2026-05-01 08:10 -34.91432 -58.23116 10454 ft 328 kts 61°
2026-05-01 08:11 -34.89464 -58.17634 11139 ft 369 kts 67°
2026-05-01 08:11 -34.87987 -58.11564 12710 ft 377 kts 68°
2026-05-01 08:12 -34.86278 -58.05475 14063 ft 389 kts 66°
2026-05-01 08:12 -34.85427 -58.02320 14733 ft 394 kts 67°
2026-05-01 08:12 -34.83703 -57.95877 15943 ft 407 kts 67°
2026-05-01 08:13 -34.82798 -57.92579 16540 ft 412 kts 66°